Météo par heure à Alipino

Ce jour, 22 Octobre, Jeudi

Heure Température Précipitation Vent Pression Humidité
00:00 +6°C° 0 mm 2 m/s 749 mmHg 95%
01:00 +5°C° 0 mm 3 m/s 749 mmHg 96%
02:00 +5°C° 0 mm 3 m/s 749 mmHg 96%
03:00 +5°C° 0.1 mm 3 m/s 748 mmHg 95%
04:00 +5°C° 0.1 mm 3 m/s 747 mmHg 95%
05:00 +5°C° 0.1 mm 4 m/s 747 mmHg 94%
06:00 +6°C° 1.4 mm 4 m/s 746 mmHg 94%
07:00 +6°C° 1.4 mm 4 m/s 745 mmHg 94%
08:00 +6°C° 1.4 mm 5 m/s 745 mmHg 94%
09:00 +7°C° 0.6 mm 5 m/s 744 mmHg 93%
10:00 +7°C° 0.6 mm 5 m/s 744 mmHg 93%
11:00 +8°C° 0.6 mm 5 m/s 743 mmHg 92%
12:00 +8°C° 0.1 mm 5 m/s 743 mmHg 91%
13:00 +9°C° 0.1 mm 5 m/s 742 mmHg 89%
14:00 +10°C° 0.1 mm 5 m/s 742 mmHg 87%
15:00 +10°C° 0.2 mm 5 m/s 741 mmHg 88%
16:00 +10°C° 0.2 mm 6 m/s 740 mmHg 88%
17:00 +10°C° 0.2 mm 6 m/s 739 mmHg 88%
18:00 +11°C° 0.8 mm 6 m/s 739 mmHg 88%
19:00 +11°C° 0.8 mm 7 m/s 739 mmHg 87%
20:00 +11°C° 0.8 mm 7 m/s 739 mmHg 86%
21:00 +11°C° 0.1 mm 7 m/s 740 mmHg 84%
22:00 +11°C° 0.1 mm 7 m/s 740 mmHg 83%
23:00 +11°C° 0.1 mm 7 m/s 741 mmHg 81%

Demain, 23 Octobre, Vendredi

Heure Température Précipitation Vent Pression Humidité
00:00 +11°C° 0 mm 7 m/s 741 mmHg 82%
01:00 +11°C° 0 mm 6 m/s 742 mmHg 84%
02:00 +12°C° 0 mm 5 m/s 743 mmHg 85%
03:00 +10°C° 0.1 mm 5 m/s 743 mmHg 85%
04:00 +10°C° 0.1 mm 5 m/s 743 mmHg 86%
05:00 +9°C° 0.1 mm 5 m/s 743 mmHg 86%
06:00 +9°C° 0 mm 5 m/s 743 mmHg 86%
07:00 +9°C° 0 mm 5 m/s 742 mmHg 86%
08:00 +9°C° 0 mm 5 m/s 742 mmHg 86%
09:00 +10°C° 0 mm 5 m/s 742 mmHg 84%
10:00 +12°C° 0 mm 5 m/s 742 mmHg 83%
11:00 +12°C° 0 mm 5 m/s 742 mmHg 81%
12:00 +12°C° 0.6 mm 5 m/s 741 mmHg 81%
13:00 +12°C° 0.6 mm 5 m/s 741 mmHg 81%
14:00 +11°C° 0.6 mm 6 m/s 740 mmHg 80%
15:00 +12°C° 0.4 mm 5 m/s 740 mmHg 80%
16:00 +10°C° 0.4 mm 5 m/s 740 mmHg 81%
17:00 +11°C° 0.4 mm 4 m/s 740 mmHg 81%
18:00 +10°C° 0 mm 4 m/s 741 mmHg 82%
19:00 +9°C° 0 mm 5 m/s 741 mmHg 83%
20:00 +9°C° 0 mm 5 m/s 742 mmHg 85%
21:00 +8°C° 0 mm 4 m/s 742 mmHg 86%
22:00 +8°C° 0 mm 4 m/s 743 mmHg 87%
23:00 +7°C° 0 mm 4 m/s 743 mmHg 88%

Après-demain, 24 Octobre, Samedi

Heure Température Précipitation Vent Pression Humidité
00:00 +8°C° 0 mm 3 m/s 744 mmHg 88%
01:00 +8°C° 0 mm 3 m/s 745 mmHg 88%
02:00 +8°C° 0 mm 3 m/s 745 mmHg 88%
03:00 +8°C° 0.1 mm 2 m/s 745 mmHg 90%
04:00 +7°C° 0.1 mm 2 m/s 745 mmHg 91%
05:00 +8°C° 0.1 mm 1 m/s 745 mmHg 93%
06:00 +8°C° 0.2 mm 1 m/s 745 mmHg 93%
07:00 +8°C° 0.2 mm 1 m/s 746 mmHg 94%
08:00 +8°C° 0.2 mm 1 m/s 746 mmHg 94%
09:00 +8°C° 0 mm 2 m/s 746 mmHg 92%
10:00 +8°C° 0 mm 2 m/s 746 mmHg 90%
11:00 +8°C° 0 mm 3 m/s 746 mmHg 88%
12:00 +9°C° 0 mm 3 m/s 746 mmHg 85%
13:00 +9°C° 0 mm 3 m/s 746 mmHg 82%
14:00 +10°C° 0 mm 3 m/s 746 mmHg 79%
15:00 +9°C° 0 mm 3 m/s 746 mmHg 83%
16:00 +8°C° 0 mm 2 m/s 746 mmHg 87%
17:00 +7°C° 0 mm 2 m/s 746 mmHg 91%
18:00 +7°C° 0 mm 2 m/s 746 mmHg 92%
19:00 +7°C° 0 mm 2 m/s 746 mmHg 94%
20:00 +7°C° 0 mm 2 m/s 746 mmHg 95%
21:00 +7°C° 0 mm 2 m/s 746 mmHg 95%
22:00 +7°C° 0 mm 2 m/s 745 mmHg 96%
23:00 +7°C° 0 mm 2 m/s 745 mmHg 96%

, 25 Octobre, Dimanche

Heure Température Précipitation Vent Pression Humidité
00:00 +7°C° 0.4 mm 2 m/s 745 mmHg 95%
01:00 +8°C° 0.4 mm 3 m/s 745 mmHg 94%
02:00 +8°C° 0.4 mm 3 m/s 745 mmHg 94%
03:00 +7°C° 0 mm 4 m/s 745 mmHg 91%
04:00 +7°C° 0 mm 4 m/s 746 mmHg 88%
05:00 +7°C° 0 mm 4 m/s 746 mmHg 85%
06:00 +6°C° 0 mm 4 m/s 746 mmHg 86%
07:00 +6°C° 0 mm 4 m/s 747 mmHg 87%
08:00 +5°C° 0 mm 4 m/s 747 mmHg 88%
09:00 +6°C° 0 mm 4 m/s 748 mmHg 85%
10:00 +7°C° 0 mm 4 m/s 749 mmHg 82%
11:00 +8°C° 0 mm 4 m/s 750 mmHg 78%
12:00 +9°C° 0 mm 3 m/s 750 mmHg 77%
13:00 +9°C° 0 mm 3 m/s 751 mmHg 76%
14:00 +9°C° 0 mm 3 m/s 751 mmHg 75%
15:00 +8°C° 0 mm 2 m/s 751 mmHg 80%
16:00 +8°C° 0 mm 1 m/s 752 mmHg 85%
17:00 +7°C° 0 mm 1 m/s 752 mmHg 91%
18:00 +7°C° 0 mm 1 m/s 753 mmHg 91%
19:00 +7°C° 0 mm 1 m/s 753 mmHg 92%
20:00 +7°C° 0 mm 1 m/s 754 mmHg 93%
21:00 +7°C° 0 mm 1 m/s 754 mmHg 94%
22:00 +6°C° 0 mm 1 m/s 754 mmHg 95%
23:00 +6°C° 0 mm 1 m/s 754 mmHg 96%

25 Octobre, Dimanche

Heure Température Précipitation Vent Pression Humidité
00:00 +7°C° 0.4 mm 2 m/s 745 mmHg 95%
01:00 +8°C° 0.4 mm 3 m/s 745 mmHg 94%
02:00 +8°C° 0.4 mm 3 m/s 745 mmHg 94%
03:00 +7°C° 0 mm 4 m/s 745 mmHg 91%
04:00 +7°C° 0 mm 4 m/s 746 mmHg 88%
05:00 +7°C° 0 mm 4 m/s 746 mmHg 85%
06:00 +6°C° 0 mm 4 m/s 746 mmHg 86%
07:00 +6°C° 0 mm 4 m/s 747 mmHg 87%
08:00 +5°C° 0 mm 4 m/s 747 mmHg 88%
09:00 +6°C° 0 mm 4 m/s 748 mmHg 85%
10:00 +7°C° 0 mm 4 m/s 749 mmHg 82%
11:00 +8°C° 0 mm 4 m/s 750 mmHg 78%
12:00 +9°C° 0 mm 3 m/s 750 mmHg 77%
13:00 +9°C° 0 mm 3 m/s 751 mmHg 76%
14:00 +9°C° 0 mm 3 m/s 751 mmHg 75%
15:00 +8°C° 0 mm 2 m/s 751 mmHg 80%
16:00 +8°C° 0 mm 1 m/s 752 mmHg 85%
17:00 +7°C° 0 mm 1 m/s 752 mmHg 91%
18:00 +7°C° 0 mm 1 m/s 753 mmHg 91%
19:00 +7°C° 0 mm 1 m/s 753 mmHg 92%
20:00 +7°C° 0 mm 1 m/s 754 mmHg 93%
21:00 +7°C° 0 mm 1 m/s 754 mmHg 94%
22:00 +6°C° 0 mm 1 m/s 754 mmHg 95%
23:00 +6°C° 0 mm 1 m/s 754 mmHg 96%

26 Octobre, Lundi

Heure Température Précipitation Vent Pression Humidité
00:00 +6°C° 0 mm 1 m/s 755 mmHg 96%
01:00 +6°C° 0 mm 1 m/s 755 mmHg 96%
02:00 +6°C° 0 mm 1 m/s 755 mmHg 96%
03:00 +5°C° 0 mm 1 m/s 755 mmHg 96%
04:00 +4°C° 0 mm 2 m/s 755 mmHg 96%
05:00 +4°C° 0 mm 2 m/s 755 mmHg 96%
06:00 +4°C° 0 mm 2 m/s 755 mmHg 95%
07:00 +4°C° 0 mm 2 m/s 755 mmHg 95%
08:00 +4°C° 0 mm 2 m/s 756 mmHg 94%
09:00 +6°C° 0 mm 2 m/s 756 mmHg 90%
10:00 +7°C° 0 mm 2 m/s 756 mmHg 86%
11:00 +8°C° 0 mm 3 m/s 756 mmHg 82%
12:00 +9°C° 0 mm 3 m/s 756 mmHg 81%
13:00 +10°C° 0 mm 3 m/s 756 mmHg 79%
14:00 +10°C° 0 mm 3 m/s 756 mmHg 77%
15:00 +9°C° 0 mm 3 m/s 755 mmHg 82%
16:00 +8°C° 0 mm 2 m/s 755 mmHg 87%
17:00 +7°C° 0 mm 2 m/s 755 mmHg 92%
18:00 +7°C° 0 mm 2 m/s 755 mmHg 93%
19:00 +7°C° 0 mm 2 m/s 755 mmHg 93%
20:00 +7°C° 0 mm 2 m/s 755 mmHg 93%
21:00 +5°C° 0 mm 3 m/s 755 mmHg 93%
22:00 +5°C° 0 mm 3 m/s 755 mmHg 93%
23:00 +5°C° 0 mm 3 m/s 755 mmHg 93%

27 Octobre, Mardi

Heure Température Précipitation Vent Pression Humidité
00:00 +5°C° 0 mm 3 m/s 755 mmHg 93%
01:00 +5°C° 0 mm 3 m/s 755 mmHg 93%
02:00 +5°C° 0 mm 3 m/s 755 mmHg 93%
03:00 +5°C° 0 mm 3 m/s 755 mmHg 93%
04:00 +5°C° 0 mm 3 m/s 754 mmHg 93%
05:00 +5°C° 0 mm 3 m/s 754 mmHg 93%
06:00 +5°C° 0 mm 3 m/s 754 mmHg 93%
07:00 +5°C° 0 mm 3 m/s 754 mmHg 92%
08:00 +5°C° 0 mm 3 m/s 754 mmHg 92%
09:00 +7°C° 0 mm 3 m/s 754 mmHg 89%
10:00 +7°C° 0 mm 3 m/s 754 mmHg 85%
11:00 +7°C° 0 mm 4 m/s 754 mmHg 82%
12:00 +8°C° 0 mm 3 m/s 753 mmHg 82%
13:00 +9°C° 0 mm 3 m/s 753 mmHg 81%
14:00 +9°C° 0 mm 3 m/s 753 mmHg 81%
15:00 +9°C° 0.1 mm 3 m/s 753 mmHg 84%
16:00 +7°C° 0.1 mm 4 m/s 753 mmHg 86%
17:00 +7°C° 0.1 mm 4 m/s 753 mmHg 89%
18:00 +7°C° 0.1 mm 4 m/s 753 mmHg 89%
19:00 +7°C° 0.1 mm 4 m/s 753 mmHg 90%
20:00 +9°C° 0.1 mm 3 m/s 753 mmHg 90%
21:00 +9°C° 0 mm 3 m/s 753 mmHg 91%
22:00 +9°C° 0 mm 3 m/s 753 mmHg 91%
23:00 +9°C° 0 mm 3 m/s 753 mmHg 92%
Voir plus

Nous avons besoin de votre consentement

Meteoprog et ses fournisseurs de services peuvent stocker et accéder à des données personnelles telles que des cookies, des identifiants d'appareils ou d'autres technologies similaires sur votre appareil et traiter ces données pour personnaliser le contenu et les publicités, ainsi que pour fournir des fonctionnalités de médias sociaux et analyser le trafic.

  • Stocker et/ou accéder à des informations sur votre appareil

    Des cookies, des identifiants d'appareils ou d'autres informations peuvent être stockés ou accessibles sur votre appareil aux fins indiquées ci-dessus.

  • Annonces et contenus personnalisés, mesure des annonces et des contenus, connaissance de l'audience et développement de produits

    Les annonces et le contenu peuvent être personnalisés en fonction d'un profil. D'autres données peuvent être ajoutées pour mieux personnaliser les annonces et le contenu. Les performances des publicités et du contenu peuvent être mesurées. Il est possible d'obtenir des informations sur le public qui a vu les publicités et le contenu. Ces données peuvent être utilisées pour développer ou améliorer l'expérience de l'utilisateur, les systèmes et les logiciels.

En cliquant sur "J'accepte", vous autorisez l'utilisation de cookies, des identifiants d'appareils, des balises web ou d'autres technologies similaires. Vos paramètres peuvent être modifiés dans le navigateur de votre appareil.

Dans certains cas, des intérêts légitimes peuvent être invoqués plutôt qu'un consentement. Vous pouvez en savoir plus à ce sujet dans notre Politique de confidentialité et de cookies.